EW1613 Weather Reports


time (UTC)temp
C
wind
direction
speed
KPH
gust
KPH
rain 1hr
cm
rain 24hr
cm
rain mn
cm
humidity
%
barometer
mb
20260906100105 29 62 4.8 17.7 0.00 0.00 0.00 50 1022.5
20260906095627 29 37 9.7 17.7 0.00 0.00 0.00 50 1022.5
20260906095059 29 142 3.2 19.3 0.00 0.00 0.00 51 1022.5
20260906094620 29 46 6.4 16.1 0.00 0.00 0.00 51 1022.6
20260906094116 29 60 6.4 14.5 0.00 0.00 0.00 51 1022.6
20260906093615 29 82 8.0 14.5 0.00 0.00 0.00 51 1022.6
20260906093109 29 88 4.8 14.5 0.00 0.00 0.00 51 1022.7
20260906092630 28 98 6.4 14.5 0.00 0.00 0.00 52 1022.7
20260906092103 28 49 6.4 16.1 0.00 0.00 0.00 53 1022.8
20260906091604 28 63 8.0 16.1 0.00 0.00 0.00 51 1022.8
20260906091057 28 85 4.8 16.1 0.00 0.00 0.00 53 1022.8
20260906090619 28 76 3.2 12.9 0.00 0.00 0.00 53 1022.8
20260906090051 28 85 8.0 14.5 0.00 0.00 0.00 53 1022.8
20260906085552 28 84 6.4 14.5 0.00 0.00 0.00 53 1022.9
20260906085113 28 33 6.4 16.1 0.00 0.00 0.00 53 1022.9
20260906084606 28 74 9.7 16.1 0.00 0.00 0.00 52 1022.8
20260906084100 28 69 8.0 16.1 0.00 0.00 0.00 53 1022.8
20260906083601 28 80 4.8 16.1 0.00 0.00 0.00 53 1022.8
20260906083055 28 66 8.0 16.1 0.00 0.00 0.00 53 1022.9
20260906082616 28 77 8.0 16.1 0.00 0.00 0.00 54 1022.8
20260906082056 28 355 6.4 17.7 0.00 0.00 0.00 54 1022.8
20260906081637 28 43 8.0 17.7 0.00 0.00 0.00 54 1022.8
20260906081109 27 36 6.4 16.1 0.00 0.00 0.00 55 1022.7
20260906080610 27 91 4.8 19.3 0.00 0.00 0.00 57 1022.8
20260906080103 27 79 8.0 19.3 0.00 0.00 0.00 57 1022.8
20260906075604 27 76 8.0 19.3 0.00 0.00 0.00 57 1022.8
20260906075057 27 36 9.7 16.1 0.00 0.00 0.00 58 1022.7
20260906074558 27 69 6.4 16.1 0.00 0.00 0.00 58 1022.7
20260906074120 27 74 8.0 14.5 0.00 0.00 0.00 59 1022.7
20260906073609 26 72 6.4 16.1 0.00 0.00 0.00 60 1022.6
20260906073108 26 47 8.0 16.1 0.00 0.00 0.00 60 1022.5
20260906072602 26 61 8.0 17.7 0.00 0.00 0.00 60 1022.6
20260906072103 26 57 6.4 17.7 0.00 0.00 0.00 61 1022.6
20260906071557 26 46 6.4 16.1 0.00 0.00 0.00 62 1022.5
20260906071057 26 74 6.4 16.1 0.00 0.00 0.00 63 1022.5
20260906070556 26 355 4.8 9.7 0.00 0.00 0.00 64 1022.4
20260906070106 25 49 3.2 12.9 0.00 0.00 0.00 66 1022.4
20260906065626 25 34 6.4 12.9 0.00 0.00 0.00 66 1022.4
20260906065105 25 39 4.8 14.5 0.00 0.00 0.00 66 1022.4
20260906064607 25 33 6.4 14.5 0.00 0.00 0.00 66 1022.3
20260906064100 25 18 6.4 14.5 0.00 0.00 0.00 67 1022.2
20260906063554 25 34 6.4 12.9 0.00 0.00 0.00 68 1022.2
20260906063055 25 46 3.2 8.0 0.00 0.00 0.00 70 1022.2
20260906062552 24 34 3.2 14.5 0.00 0.00 0.00 70 1022.1
20260906062053 24 19 3.2 8.0 0.00 0.00 0.00 72 1022.0
20260906061615 24 40 3.2 9.7 0.00 0.00 0.00 73 1022.0
20260906061108 23 28 3.2 9.7 0.00 0.00 0.00 73 1022.0
20260906060629 23 5 3.2 8.0 0.00 0.00 0.00 74 1021.9
20260906060108 23 14 1.6 6.4 0.00 0.00 0.00 75 1021.9
20260906055602 23 13 3.2 6.4 0.00 0.00 0.00 75 1021.9
20260906055102 23 17 1.6 4.8 0.00 0.00 0.00 77 1021.8
20260906054555 22 16 0.0 6.4 0.00 0.00 0.00 78 1021.7
20260906054116 22 17 0.0 8.0 0.00 0.00 0.00 78 1021.5
20260906053610 22 346 1.6 8.0 0.00 0.00 0.00 79 1021.5
20260906053110 22 5 1.6 4.8 0.00 0.00 0.00 80 1021.5
20260906052604 22 5 0.0 3.2 0.00 0.00 0.00 81 1021.4
20260906052105 22 5 1.6 3.2 0.00 0.00 0.00 81 1021.5
20260906051559 21 5 0.0 3.2 0.00 0.00 0.00 81 1021.4
20260906051053 21 5 0.0 3.2 0.00 0.00 0.00 81 1021.4
20260906050554 21 5 0.0 4.8 0.00 0.00 0.00 81 1021.3
20260906050112 21 5 1.6 4.8 0.00 0.00 0.00 81 1021.3
20260906045604 22 5 0.0 3.2 0.00 0.00 0.00 81 1021.2
20260906045105 22 5 0.0 3.2 0.00 0.00 0.00 80 1021.1
20260906044626 22 5 0.0 3.2 0.00 0.00 0.00 80 1021.1
20260906044059 22 5 1.6 3.2 0.00 0.00 0.00 80 1021.1
20260906043558 22 5 0.0 3.2 0.00 0.00 0.00 80 1021.0
20260906043052 22 5 1.6 4.8 0.00 0.00 0.00 80 1020.9
20260906042613 22 5 1.6 6.4 0.00 0.00 0.00 80 1020.8
20260906042107 22 5 1.6 6.4 0.00 0.00 0.00 80 1020.8
20260906041607 22 355 1.6 4.8 0.00 0.00 0.00 80 1020.7
20260906041101 22 355 1.6 4.8 0.00 0.00 0.00 80 1020.7
20260906040602 22 355 0.0 4.8 0.00 0.00 0.00 79 1020.6
20260906040116 22 348 1.6 4.8 0.00 0.00 0.00 79 1020.6
20260906035616 22 350 0.0 4.8 0.00 0.00 0.00 78 1020.6
20260906035055 22 348 1.6 6.4 0.00 0.00 0.00 78 1020.6
20260906034616 22 347 1.6 6.4 0.00 0.00 0.00 78 1020.5
20260906034108 22 13 1.6 6.4 0.00 0.00 0.00 79 1020.4
20260906033609 22 13 0.0 6.4 0.00 0.00 0.00 79 1020.4
20260906033103 22 13 1.6 4.8 0.00 0.00 0.00 79 1020.4
20260906032624 22 29 0.0 6.4 0.00 0.00 0.00 79 1020.3
20260906032056 22 29 3.2 6.4 0.00 0.00 0.00 80 1020.4
20260906031557 22 5 1.6 4.8 0.00 0.00 0.00 81 1020.3
20260906031051 22 5 1.6 4.8 0.00 0.00 0.00 81 1020.4
20260906030551 22 5 1.6 4.8 0.00 0.00 0.00 81 1020.3
20260906030106 22 5 1.6 4.8 0.00 0.00 0.00 82 1020.3
20260906025606 22 351 0.0 4.8 0.00 0.00 0.00 82 1020.4
20260906025100 22 345 1.6 4.8 0.00 0.00 0.00 82 1020.4
20260906024601 22 345 1.6 4.8 0.00 0.00 0.00 83 1020.5
20260906024056 22 333 1.6 4.8 0.00 0.00 0.00 83 1020.5
20260906023617 22 335 1.6 6.4 0.00 0.00 0.00 83 1020.5
20260906023116 22 349 3.2 6.4 0.00 0.00 0.00 83 1020.5
20260906022610 22 328 1.6 4.8 0.00 0.00 0.00 84 1020.4
20260906022111 22 327 1.6 3.2 0.00 0.00 0.00 84 1020.4
20260906021625 22 327 1.6 4.8 0.00 0.00 0.00 84 1020.3
20260906021101 22 327 3.2 4.8 0.00 0.00 0.00 84 1020.2
20260906020555 22 326 0.0 3.2 0.00 0.00 0.00 84 1020.2
20260906020056 22 326 0.0 4.8 0.00 0.00 0.00 85 1020.2
20260906015606 22 326 1.6 4.8 0.00 0.00 0.00 85 1020.1
20260906015051 22 325 1.6 3.2 0.00 0.00 0.00 86 1020.1
20260906014600 22 325 0.0 3.2 0.00 0.00 0.00 86 1020.1
20260906014101 22 325 0.0 3.2 0.00 0.00 0.00 86 1020.2
20260906013555 22 323 1.6 4.8 0.00 0.00 0.00 85 1020.1
20260906013057 23 322 1.6 6.4 0.00 0.00 0.00 85 1020.1
20260906012619 23 325 3.2 6.4 0.00 0.00 0.00 85 1020.1
20260906012051 23 343 3.2 4.8 0.00 0.00 0.00 85 1020.1
20260906011612 23 347 1.6 4.8 0.00 0.00 0.00 85 1020.0
20260906011133 23 13 3.2 4.8 0.00 0.00 0.00 84 1020.0
20260906010625 23 32 0.0 1.6 0.00 0.00 0.00 85 1020.0
20260906010105 23 32 0.0 0.0 0.00 0.00 0.00 84 1019.9
20260906005559 23 32 0.0 0.0 0.00 0.00 0.00 84 1019.9
20260906005100 23 32 0.0 0.0 0.00 0.00 0.00 84 1019.9
20260906004623 23 32 0.0 0.0 0.00 0.00 0.00 84 1020.0
20260906004115 23 32 0.0 0.0 0.00 0.00 0.00 84 1019.9
20260906003554 23 32 0.0 0.0 0.00 0.00 0.00 84 1019.9
20260906003114 23 32 0.0 1.6 0.00 0.00 0.00 84 1019.9
20260906002608 23 32 0.0 4.8 0.00 0.00 0.00 84 1019.9
20260906002101 24 32 0.0 4.8 0.00 0.00 0.00 84 1019.9
20260906001601 24 30 1.6 3.2 0.00 0.00 0.00 84 1020.0
20260906001100 24 30 0.0 3.2 0.00 0.00 0.00 84 1020.1
20260906000600 24 30 1.6 3.2 0.00 0.00 0.00 84 1020.1
20260906000059 24 30 0.0 3.2 0.00 0.00 0.00 84 1019.9
20260905235613 24 30 0.0 3.2 0.00 0.00 0.00 84 1019.9
20260905235052 24 30 1.6 4.8 0.00 0.00 0.00 84 1019.9
20260905234609 24 30 0.0 4.8 0.00 0.00 0.00 84 1019.9
20260905234103 24 31 0.0 3.2 0.00 0.00 0.00 84 1019.8
20260905233623 24 31 0.0 4.8 0.00 0.00 0.00 84 1019.8
20260905233118 24 31 1.6 4.8 0.00 0.00 0.00 84 1019.8
20260905232550 24 32 0.0 3.2 0.00 0.00 0.00 85 1019.7
20260905232051 24 32 0.0 3.2 0.00 0.00 0.00 85 1019.7
20260905231605 24 32 0.0 3.2 0.00 0.00 0.00 85 1019.7
20260905231126 24 32 1.6 6.4 0.00 0.00 0.00 85 1019.7
20260905230606 24 29 1.6 6.4 0.00 0.00 0.00 86 1019.6
20260905230059 24 25 1.6 4.8 0.00 0.00 0.00 87 1019.6
20260905225559 24 24 1.6 4.8 0.00 0.00 0.00 87 1019.6
20260905225053 24 24 1.6 4.8 0.00 0.00 0.00 87 1019.5
20260905224553 24 23 0.0 3.2 0.00 0.00 0.00 87 1019.4
20260905224115 24 23 0.0 3.2 0.00 0.00 0.00 87 1019.4
20260905223550 25 23 1.6 4.8 0.00 0.00 0.00 87 1019.4
20260905223104 25 23 1.6 4.8 0.00 0.00 0.00 87 1019.4
20260905222605 25 33 1.6 4.8 0.00 0.00 0.00 87 1019.4
20260905222126 25 31 1.6 4.8 0.00 0.00 0.00 87 1019.4
20260905221558 25 25 0.0 4.8 0.00 0.00 0.00 87 1019.4
20260905221059 25 25 0.0 4.8 0.00 0.00 0.00 86 1019.3
20260905220552 25 25 1.6 3.2 0.00 0.00 0.00 86 1019.2
20260905220112 25 98 0.0 0.0 0.00 0.00 0.00 85 1019.1
20260905215605 25 98 0.0 0.0 0.00 0.00 0.00 85 1019.1
20260905215125 26 98 0.0 0.0 0.00 0.00 0.00 84 1019.1
20260905214608 26 98 0.0 0.0 0.00 0.00 0.00 84 1019.1
20260905214100 26 98 0.0 0.0 0.00 0.00 0.00 84 1019.0
20260905213621 26 98 0.0 0.0 0.00 0.00 0.00 84 1019.0
20260905213053 26 98 0.0 0.0 0.00 0.00 0.00 83 1018.9
20260905212554 26 98 0.0 0.0 0.00 0.00 0.00 83 1018.8
20260905212108 26 98 0.0 0.0 0.00 0.00 0.00 82 1018.7
20260905211609 26 98 0.0 3.2 0.00 0.00 0.00 82 1018.6
20260905211103 26 98 0.0 4.8 0.00 0.00 0.00 82 1018.5
20260905210604 26 98 0.0 4.8 0.00 0.00 0.00 82 1018.5
20260905210057 26 98 0.0 4.8 0.00 0.00 0.00 81 1018.5
20260905205558 26 96 1.6 4.8 0.00 0.00 0.00 81 1018.5
20260905205052 27 97 3.2 4.8 0.00 0.00 0.00 81 1018.6
20260905204613 27 96 0.0 6.4 0.00 0.00 0.00 81 1018.5
20260905204107 27 96 3.2 6.4 0.00 0.00 0.00 80 1018.5
20260905203608 27 98 1.6 9.7 0.00 0.00 0.00 80 1018.4
20260905203102 27 109 3.2 9.7 0.00 0.00 0.00 80 1018.4
20260905202603 27 119 1.6 8.0 0.00 0.00 0.00 80 1018.4
20260905202113 27 110 3.2 9.7 0.00 0.00 0.00 79 1018.4
20260905201552 27 99 3.2 8.0 0.00 0.00 0.00 79 1018.4
20260905201113 27 138 1.6 8.0 0.00 0.00 0.00 79 1018.4
20260905200607 27 128 3.2 8.0 0.00 0.00 0.00 78 1018.3
20260905200101 27 145 3.2 8.0 0.00 0.00 0.00 78 1018.3
20260905195602 27 142 4.8 8.0 0.00 0.00 0.00 78 1018.2
20260905195055 27 173 3.2 8.0 0.00 0.00 0.00 77 1018.2
20260905194557 27 144 3.2 9.7 0.00 0.00 0.00 77 1018.1
20260905194051 27 145 4.8 9.7 0.00 0.00 0.00 77 1018.1
20260905193552 28 156 3.2 8.0 0.00 0.00 0.00 76 1017.9
20260905193106 28 163 3.2 9.7 0.00 0.00 0.00 76 1017.9
20260905192627 28 151 3.2 9.7 0.00 0.00 0.00 75 1017.7
20260905192127 28 164 4.8 9.7 0.00 0.00 0.00 74 1017.6
20260905191607 28 150 3.2 8.0 0.00 0.00 0.00 74 1017.5
20260905191100 28 163 1.6 6.4 0.00 0.00 0.00 73 1017.5
20260905190554 28 159 1.6 4.8 0.00 0.00 0.00 72 1017.5
20260905190055 28 151 1.6 4.8 0.00 0.00 0.00 72 1017.4
20260905185616 29 101 1.6 4.8 0.00 0.00 0.00 72 1017.4
20260905185050 29 101 0.0 4.8 0.00 0.00 0.00 71 1017.2
20260905184611 29 101 1.6 4.8 0.00 0.00 0.00 71 1017.2
20260905184106 29 101 1.6 4.8 0.00 0.00 0.00 71 1017.1
20260905183600 29 98 1.6 4.8 0.00 0.00 0.00 70 1017.0
20260905183100 29 96 1.6 4.8 0.00 0.00 0.00 70 1016.9
20260905182554 30 94 1.6 6.4 0.00 0.00 0.00 69 1016.8
20260905182054 30 99 1.6 6.4 0.00 0.00 0.00 69 1016.8
20260905181615 30 111 3.2 6.4 0.00 0.00 0.00 68 1016.7
20260905181129 30 103 3.2 6.4 0.00 0.00 0.00 68 1016.6
20260905180606 30 103 3.2 9.7 0.00 0.00 0.00 67 1016.6
20260905180127 30 102 3.2 9.7 0.00 0.00 0.00 65 1016.5
20260905175606 31 112 1.6 4.8 0.00 0.00 0.00 65 1016.5
20260905175100 31 111 1.6 6.4 0.00 0.00 0.00 63 1016.4
20260905174600 31 111 1.6 6.4 0.00 0.00 0.00 61 1016.3
20260905174122 31 98 1.6 4.8 0.00 0.00 0.00 60 1016.3
20260905173554 32 94 1.6 14.5 0.00 0.00 0.00 57 1016.2
20260905173115 32 92 6.4 14.5 0.00 0.00 0.00 54 1016.1
20260905172609 32 158 0.0 3.2 0.00 0.00 0.00 49 1016.0
20260905172105 32 158 0.0 3.2 0.00 0.00 0.00 48 1015.9
20260905171626 32 159 0.0 3.2 0.00 0.00 0.00 48 1015.9
20260905171059 32 159 0.0 3.2 0.00 0.00 0.00 48 1015.9
20260905170600 33 159 0.0 3.2 0.00 0.00 0.00 48 1015.9
20260905170124 33 159 1.6 3.2 0.00 0.00 0.00 47 1015.9
20260905165556 33 157 0.0 4.8 0.00 0.00 0.00 47 1015.9
20260905165117 33 158 3.2 6.4 0.00 0.00 0.00 46 1015.8
20260905164550 33 157 3.2 6.4 0.00 0.00 0.00 46 1015.7
20260905164111 33 145 3.2 6.4 0.00 0.00 0.00 46 1015.7
20260905163604 33 151 1.6 8.0 0.00 0.00 0.00 46 1015.6
20260905163125 33 148 3.2 8.0 0.00 0.00 0.00 46 1015.6
20260905162605 33 148 3.2 4.8 0.00 0.00 0.00 46 1015.6
20260905162058 33 138 1.6 4.8 0.00 0.00 0.00 46 1015.5
20260905161558 33 69 0.0 4.8 0.00 0.00 0.00 47 1015.5
20260905161052 34 68 3.2 4.8 0.00 0.00 0.00 45 1015.5
20260905160613 34 214 0.0 4.8 0.00 0.00 0.00 44 1015.5
20260905160106 35 216 1.6 3.2 0.00 0.00 0.00 45 1015.6
20260905155607 35 235 0.0 6.4 0.00 0.00 0.00 45 1015.5
20260905155101 35 236 3.2 6.4 0.00 0.00 0.00 44 1015.5
20260905154602 35 252 0.0 3.2 0.00 0.00 0.00 44 1015.4
20260905154056 35 254 0.0 1.6 0.00 0.00 0.00 45 1015.5
20260905153616 34 257 0.0 4.8 0.00 0.00 0.00 46 1015.4
20260905153050 34 257 1.6 6.4 0.00 0.00 0.00 46 1015.3
20260905152611 34 189 1.6 6.4 0.00 0.00 0.00 46 1015.3
20260905152104 34 243 0.0 6.4 0.00 0.00 0.00 46 1015.3
20260905151605 33 233 1.6 6.4 0.00 0.00 0.00 46 1015.4
20260905151105 33 205 1.6 6.4 0.00 0.00 0.00 47 1015.3
20260905150558 33 193 1.6 9.7 0.00 0.00 0.00 47 1015.4
20260905150059 33 203 3.2 9.7 0.00 0.00 0.00 48 1015.3
20260905145553 33 201 1.6 6.4 0.00 0.00 0.00 49 1015.3
20260905145113 33 90 1.6 4.8 0.00 0.00 0.00 48 1015.3
20260905144607 33 67 1.6 8.0 0.00 0.00 0.00 48 1015.3
20260905144109 34 101 3.2 8.0 0.00 0.00 0.00 48 1015.3
20260905143602 34 360 1.6 6.4 0.00 0.00 0.00 47 1015.3
20260905143059 34 293 3.2 4.8 0.00 0.00 0.00 46 1015.5
20260905142553 34 175 1.6 4.8 0.00 0.00 0.00 47 1015.5
20260905142115 34 175 0.0 4.8 0.00 0.00 0.00 47 1015.5
20260905141614 34 173 1.6 6.4 0.00 0.00 0.00 48 1015.5
20260905141124 33 205 3.2 9.7 0.00 0.00 0.00 48 1015.6
20260905140604 33 214 3.2 9.7 0.00 0.00 0.00 48 1015.6
20260905140056 33 200 4.8 9.7 0.00 0.00 0.00 49 1015.6
20260905135555 33 153 4.8 8.0 0.00 0.00 0.00 49 1015.6
20260905135116 33 88 1.6 4.8 0.00 0.00 0.00 49 1015.7
20260905134550 33 61 1.6 6.4 0.00 0.00 0.00 49 1015.7
20260905134131 33 348 1.6 6.4 0.00 0.00 0.00 49 1015.7
20260905133603 33 321 1.6 9.7 0.00 0.00 0.00 49 1015.8
20260905133103 33 309 3.2 11.3 0.00 0.00 0.00 49 1015.9
20260905132617 33 266 1.6 8.0 0.00 0.00 0.00 49 1016.0
20260905132056 33 355 1.6 6.4 0.00 0.00 0.00 50 1016.0
20260905131551 33 271 1.6 11.3 0.00 0.00 0.00 50 1016.1
20260905131051 33 233 3.2 11.3 0.00 0.00 0.00 49 1016.1
20260905130612 33 220 3.2 9.7 0.00 0.00 0.00 50 1016.1
20260905130106 33 164 4.8 16.1 0.00 0.00 0.00 50 1016.2
20260905125601 33 230 9.7 16.1 0.00 0.00 0.00 49 1016.2
20260905125102 33 246 3.2 11.3 0.00 0.00 0.00 49 1016.2
20260905124556 33 152 3.2 9.7 0.00 0.00 0.00 50 1016.2
20260905124118 33 147 3.2 9.7 0.00 0.00 0.00 49 1016.4
20260905123557 33 111 3.2 8.0 0.00 0.00 0.00 49 1016.5
20260905123111 33 216 4.8 6.4 0.00 0.00 0.00 49 1016.5
20260905122558 33 319 1.6 6.4 0.00 0.00 0.00 50 1016.5
20260905122119 33 244 0.0 6.4 0.00 0.00 0.00 50 1016.6
20260905121551 32 261 1.6 4.8 0.00 0.00 0.00 50 1016.6
20260905121052 32 344 1.6 4.8 0.00 0.00 0.00 51 1016.7
20260905120612 32 38 3.2 4.8 0.00 0.00 0.00 50 1016.7
20260905120105 32 312 0.0 4.8 0.00 0.00 0.00 50 1016.8
20260905115605 32 308 1.6 4.8 0.00 0.00 0.00 50 1016.8
20260905115059 32 305 1.6 4.8 0.00 0.00 0.00 50 1016.8
20260905114600 32 269 0.0 12.9 0.00 0.00 0.00 51 1016.8
20260905114053 32 309 4.8 12.9 0.00 0.00 0.00 50 1016.9
20260905113554 32 271 1.6 11.3 0.00 0.00 0.00 51 1016.8
20260905113135 32 295 1.6 11.3 0.00 0.00 0.00 51 1016.8
20260905112635 31 226 1.6 16.1 0.00 0.00 0.00 53 1016.8
20260905112107 31 346 6.4 16.1 0.00 0.00 0.00 55 1016.8
20260905111609 31 26 3.2 6.4 0.00 0.00 0.00 55 1016.8
20260905111115 31 55 1.6 6.4 0.00 0.00 0.00 53 1016.8
20260905110555 31 333 4.8 6.4 0.00 0.00 0.00 52 1016.9
20260905110116 31 355 1.6 6.4 0.00 0.00 0.00 52 1016.9
20260905105608 31 259 3.2 6.4 0.00 0.00 0.00 53 1017.0
20260905105102 31 10 0.0 4.8 0.00 0.00 0.00 53 1016.9
20260905104603 31 43 1.6 4.8 0.00 0.00 0.00 54 1016.9
20260905104057 30 49 0.0 6.4 0.00 0.00 0.00 54 1016.9
20260905103618 30 40 1.6 8.0 0.00 0.00 0.00 54 1017.0
20260905103059 30 5 4.8 8.0 0.00 0.00 0.00 54 1017.1
20260905102550 30 5 0.0 4.8 0.00 0.00 0.00 56 1017.1
20260905102111 30 5 0.0 6.4 0.00 0.00 0.00 56 1017.1
20260905101550 30 32 3.2 6.4 0.00 0.00 0.00 56 1017.1
20260905101104 30 327 3.2 6.4 0.00 0.00 0.00 56 1017.0
20260905100605 30 311 1.6 6.4 0.00 0.00 0.00 57 1017.1